Point Pleasant, WV

5:14 PM EDT on September 21, 2017 (GMT -0400)
Point Pleasant

Weather History for K3I2 - May, 2012

Change the Weather History Date:

Thursday, May 31, 2012

  Actual Average (KHTS) Record (KHTS)
Temperature  
Mean Temperature 65 °F -  
Max Temperature 80 °F 74 °F 96 °F (1919)
Min Temperature 50 °F 55 °F 35 °F (1966)
Growing Degree Days 15 (Base 50)    
Moisture  
Dew Point 49 °F    
Average Humidity 56    
Maximum Humidity 94    
Minimum Humidity 26    
Precipitation  
Precipitation 0.00 in - - ()
Sea Level Pressure  
Sea Level Pressure 29.86 in    
Wind  
Wind Speed 1 mph (SSE)    
Max Wind Speed 8 mph    
Max Gust Speed -    
Visibility 10 miles    
Events      
Averages and records for this station are not official NWS values.
T = Trace of Precipitation, MM = Missing Value Source: NWS Daily Summary

Daily Weather History Graph

Daily Weather History Graph

Search for Another Location

Airport or City:

Trip Planner

Search our weather history database for the weather conditions in past years. The results will help you decide how hot, cold, wet, or windy it might be!

Date:

Astronomy

May. 31, 2012 Rise Set
Actual Time 6:05 AM EDT 8:47 PM EDT
Civil Twilight 5:33 AM EDT 9:19 PM EDT
Nautical Twilight 4:54 AM EDT 9:58 PM EDT
Astronomical Twilight 4:10 AM EDT 10:42 PM EDT
Moon 4:37 PM EDT (5/31) 3:00 AM EDT (5/31)
Length of Visible Light 15h 45m
Length of Day
14h 42m
Waxing Gibbous, 80% of the Moon is Illuminated
May 31
Waxing Gibbous
Jun 4
Full
Jun 11
Last Quarter
Jun 19
New
Jun 26
First Quarter

Hourly Weather History & Observations

Time (EDT) Temp. Dew Point Humidity Pressure Visibility Wind Dir Wind Speed Gust Speed Precip Events Conditions
1:55 AM 57.2 °F 50.0 °F 77% 29.86 in 10.0 mi Calm Calm - N/A   Clear
2:15 AM 55.4 °F 50.0 °F 82% 29.87 in 10.0 mi Calm Calm - N/A   Clear
2:35 AM 53.6 °F 50.0 °F 88% 29.86 in 10.0 mi Calm Calm - N/A   Clear
2:55 AM 53.6 °F 50.0 °F 88% 29.87 in 10.0 mi Calm Calm - N/A   Clear
3:15 AM 53.6 °F 50.0 °F 88% 29.89 in 10.0 mi Calm Calm - N/A   Clear
3:35 AM 53.6 °F 50.0 °F 88% 29.89 in 10.0 mi Calm Calm - N/A   Clear
3:55 AM 53.6 °F 50.0 °F 88% 29.90 in 10.0 mi Calm Calm - N/A   Clear
4:15 AM 51.8 °F 50.0 °F 94% 29.89 in 10.0 mi Calm Calm - N/A   Clear
4:35 AM 51.8 °F 50.0 °F 94% 29.89 in 10.0 mi Calm Calm - N/A   Clear
4:55 AM 51.8 °F 48.2 °F 88% 29.90 in 10.0 mi Calm Calm - N/A   Clear
5:15 AM 51.8 °F 48.2 °F 88% 29.90 in 10.0 mi Calm Calm - N/A   Clear
5:35 AM 50.0 °F 48.2 °F 94% 29.90 in 10.0 mi Calm Calm - N/A   Clear
5:55 AM 50.0 °F 48.2 °F 94% 29.90 in 10.0 mi Calm Calm - N/A   Clear
6:15 AM 50.0 °F 48.2 °F 94% 29.91 in 10.0 mi Calm Calm - N/A   Clear
6:35 AM 50.0 °F 48.2 °F 94% 29.91 in 10.0 mi Calm Calm - N/A   Clear
6:55 AM 51.8 °F 50.0 °F 94% 29.92 in 10.0 mi Calm Calm - N/A   Clear
7:15 AM 53.6 °F 50.0 °F 88% 29.93 in 10.0 mi Calm Calm - N/A   Clear
7:35 AM 55.4 °F 51.8 °F 88% 29.93 in 10.0 mi Calm Calm - N/A   Clear
7:55 AM 59.0 °F 51.8 °F 77% 29.93 in 10.0 mi Calm Calm - N/A   Clear
8:15 AM 59.0 °F 51.8 °F 77% 29.92 in 10.0 mi Calm Calm - N/A   Clear
8:35 AM 62.6 °F 51.8 °F 68% 29.93 in 10.0 mi Calm Calm - N/A   Clear
8:55 AM 62.6 °F 51.8 °F 68% 29.93 in 10.0 mi Calm Calm - N/A   Clear
9:15 AM 66.2 °F 51.8 °F 60% 29.94 in 10.0 mi Calm Calm - N/A   Clear
9:35 AM 66.2 °F 50.0 °F 56% 29.94 in 10.0 mi Calm Calm - N/A   Clear
9:55 AM 68.0 °F 50.0 °F 52% 29.93 in 10.0 mi Calm Calm - N/A   Clear
10:15 AM 69.8 °F 51.8 °F 53% 29.92 in 10.0 mi Calm Calm - N/A   Clear
10:55 AM 73.4 °F 50.0 °F 44% 29.93 in 10.0 mi Calm Calm - N/A   Clear
11:15 AM 73.4 °F 48.2 °F 41% 29.93 in 10.0 mi SW 3.5 mph - N/A   Clear
11:35 AM 77.0 °F 44.6 °F 32% 29.93 in 10.0 mi Calm Calm - N/A   Clear
11:55 AM 77.0 °F 44.6 °F 32% 29.93 in 10.0 mi Calm Calm - N/A   Clear
12:15 PM 77.0 °F 44.6 °F 32% 29.92 in 10.0 mi South 4.6 mph - N/A   Clear
12:35 PM 77.0 °F 42.8 °F 29% 29.91 in 10.0 mi Calm Calm - N/A   Clear
12:55 PM 77.0 °F 44.6 °F 32% 29.91 in 10.0 mi SW 3.5 mph - N/A   Clear
1:15 PM 78.8 °F 42.8 °F 28% 29.91 in 10.0 mi South 3.5 mph - N/A   Clear
1:35 PM 78.8 °F 42.8 °F 28% 29.90 in 10.0 mi SW 4.6 mph - N/A   Clear
1:55 PM 78.8 °F 41.0 °F 26% 29.89 in 10.0 mi South 3.5 mph - N/A   Clear
2:15 PM 80.6 °F 42.8 °F 26% 29.89 in 10.0 mi SE 4.6 mph - N/A   Clear
2:35 PM 78.8 °F 41.0 °F 26% 29.87 in 10.0 mi Calm Calm - N/A   Clear
2:55 PM 78.8 °F 41.0 °F 26% 29.87 in 10.0 mi Calm Calm - N/A   Clear
3:15 PM 80.6 °F 42.8 °F 26% 29.87 in 10.0 mi SSW 8.1 mph - N/A   Clear
3:35 PM 80.6 °F 42.8 °F 26% 29.85 in 10.0 mi SSW 4.6 mph - N/A   Clear
3:55 PM 80.6 °F 42.8 °F 26% 29.85 in 10.0 mi Calm Calm - N/A   Clear
4:15 PM 80.6 °F 42.8 °F 26% 29.84 in 10.0 mi South 3.5 mph - N/A   Clear
4:35 PM 80.6 °F 42.8 °F 26% 29.84 in 10.0 mi SSE 3.5 mph - N/A   Clear
4:55 PM 80.6 °F 46.4 °F 30% 29.83 in 10.0 mi South 4.6 mph - N/A   Scattered Clouds
5:15 PM 80.6 °F 42.8 °F 26% 29.82 in 10.0 mi Calm Calm - N/A   Clear
5:35 PM 80.6 °F 44.6 °F 28% 29.82 in 10.0 mi East 4.6 mph - N/A   Clear
5:55 PM 80.6 °F 44.6 °F 28% 29.81 in 10.0 mi SE 3.5 mph - N/A   Clear
6:15 PM 80.6 °F 44.6 °F 28% 29.80 in 10.0 mi ESE 3.5 mph - N/A   Clear
6:35 PM 80.6 °F 46.4 °F 30% 29.79 in 10.0 mi Calm Calm - N/A   Clear
6:55 PM 78.8 °F 46.4 °F 32% 29.79 in 10.0 mi ESE 3.5 mph - N/A   Clear
7:15 PM 78.8 °F 48.2 °F 34% 29.78 in 10.0 mi Calm Calm - N/A   Clear
7:35 PM 78.8 °F 48.2 °F 34% 29.77 in 10.0 mi Calm Calm - N/A   Mostly Cloudy
7:55 PM 77.0 °F 53.6 °F 44% 29.77 in 10.0 mi Calm Calm - N/A   Overcast
8:15 PM 73.4 °F 55.4 °F 53% 29.77 in 10.0 mi Calm Calm - N/A   Mostly Cloudy
8:35 PM 69.8 °F 55.4 °F 60% 29.77 in 10.0 mi Calm Calm - N/A   Scattered Clouds
8:55 PM 68.0 °F 55.4 °F 64% 29.77 in 10.0 mi Calm Calm - N/A   Clear
9:15 PM 68.0 °F 55.4 °F 64% 29.77 in 10.0 mi Calm Calm - N/A   Scattered Clouds
9:35 PM 68.0 °F 51.8 °F 56% 29.77 in 10.0 mi Calm Calm - N/A   Scattered Clouds
9:55 PM 66.2 °F 55.4 °F 68% 29.77 in 10.0 mi Calm Calm - N/A   Clear
10:15 PM 66.2 °F 53.6 °F 64% 29.77 in 10.0 mi Calm Calm - N/A   Clear
10:35 PM 64.4 °F 53.6 °F 68% 29.77 in 10.0 mi Calm Calm - N/A   Clear
10:55 PM 64.4 °F 55.4 °F 73% 29.77 in 10.0 mi Calm Calm - N/A   Clear
11:15 PM 64.4 °F 55.4 °F 73% 29.77 in 10.0 mi Calm Calm - N/A   Clear
11:35 PM 68.0 °F 53.6 °F 60% 29.76 in 10.0 mi Calm Calm - N/A   Clear
11:55 PM 71.6 °F 53.6 °F 53% 29.75 in 10.0 mi SSE 3.5 mph - N/A   Clear